Location: Buena Vista Beach
(41.8098°N, 81.1279°W)
Time: 18:14:56
(UTC+00:00)

Cosmos 2263 Rocket - Pass Details

Date: 29 October 2020
Orbit: 822 x 850 km, 71.0° (Epoch: 23 November)

Event Time Altitude Azimuth Distance (km) Brightness Sun altitude
Rises 23:42:58 0° 346° (NNW) 3,420 5.5 -15.6°
Reaches altitude 10° 23:46:07 10° 3° (N) 2,483 4.6 -16.2°
Enters shadow 23:50:13 20° 50° (NE) 1,867 3.5 -17.0°
